Regional Weather Roundup
Issued by NWS

Home | Current Version | Previous Version | Text Only | Print | Product List | Glossary Off
Versions: 1 2 3 4 5 6 7 8 9 10 11 12 13 14 15 16 17 18 19 20 21 22 23 24 25 26 27 28 29 30 31 32 33 34 35 36 37 38 39 40 41 42 43 44 45 46 47 48 49 50

000
ASUS43 KDMX 210906
RWRIA

WEATHER ROUNDUP FOR IOWA
NATIONAL WEATHER SERVICE DES MOINES IA
400 AM CDT SAT APR 21 2018

NOTE: "FAIR" INDICATES FEW OR NO CLOUDS BELOW 12,000 FEET WITH NO
SIGNIFICANT WEATHER AND/OR OBSTRUCTIONS TO VISIBILITY.

* - THESE STATIONS ARE NOT NWS STATIONS...THUS NOT UNDER NWS
QUALITY CONTROL.  THEY ALSO DO NOT REPORT WEATHER SUCH
AS PRECIPITATION OR FOG.

IAZ001>003-012>014-020>022-031>034-043>046-211000-
   NORTHWEST IOWA

CITY           SKY/WX    TMP DP  RH WIND       PRES   REMARKS
CARROLL *      CLOUDY    41  37  87 CALM      30.37S
CHEROKEE *     CLOUDY    37  32  81 CALM      30.39R
DENISON *      CLOUDY    43  36  75 E10       30.36F
LE MARS *      CLOUDY    41  32  70 CALM      30.37R
ORANGE CITY *  CLOUDY    39  36  87 E3        30.38R
SHELDON *      CLOUDY    37  34  87 E6        30.37R WCI  33
SIOUX CITY     CLOUDY    43  32  65 E6        30.35F
SPENCER        CLOUDY    36  30  79 NE3       30.39S
STORM LAKE *   CLOUDY    36  32  87 NE6       30.38R WCI  31
$$

IAZ055>058-069>071-079>083-090>094-211000-
   SOUTHWEST IOWA

CITY           SKY/WX    TMP DP  RH WIND       PRES   REMARKS
ATLANTIC *     CLOUDY    45  32  61 NE7       30.32F
AUDUBON *      CLOUDY    43  36  75 CALM      30.35F
CLARINDA *     CLOUDY    48  25  40 CALM      30.34R
COUNCIL BLFS * CLOUDY    46  30  53 NE9       30.30F
CRESTON *      CLOUDY    45  27  49 E12       30.32F
HARLAN  *      CLOUDY    45  37  76 N8        30.35F
LAMONI         CLOUDY    47  25  42 NE8       30.31F
RED OAK *      CLOUDY    46  30  53 NE6       30.32S
SHENANDOAH *   CLOUDY    46  28  49 NE6       30.31S
$$

IAZ047>049-059>061-072>074-084-211000-
   CENTRAL IOWA

CITY           SKY/WX    TMP DP  RH WIND       PRES   REMARKS
AMES           CLOUDY    42  33  70 NE3       30.38F
ANKENY *       CLOUDY    43  36  75 N7        30.39R
BOONE *        CLOUDY    43  34  70 NE7       30.37S
CHARITON *     CLOUDY    48  23  37 E5        30.35R
DES MOINES     CLOUDY    47  34  60 NE5       30.38R
GRINNELL*      CLOUDY    43  31  61 N7        30.38F
KNOXVILLE *    CLOUDY    46  23  39 CALM      30.35R
MARSHALLTOWN   CLOUDY    41  36  82 NW9       30.38R
NEWTON *       CLOUDY    45  32  61 NE7       30.36F
PELLA *        CLOUDY    46  23  40 E3        30.36F
PERRY *        CLOUDY    42  30  62 NE5       30.37R
$$

IAZ004>006-015-016-023>025-035-036-211000-
   NORTH CENTRAL IOWA

CITY           SKY/WX    TMP DP  RH WIND       PRES   REMARKS
ALGONA *       CLOUDY    37  30  75 E7        30.38F WCI  32
CLARION *      CLOUDY    39  30  70 E13       30.38F WCI  32
ESTHERVILLE    CLOUDY    34  29  82 NE3       30.38F
FORT DODGE *   CLOUDY    40  33  76 E8        30.38F WCI  34
MASON CITY     CLOUDY    37  27  67 NE6       30.41R WCI  32
FOREST CITY *  CLOUDY    39  25  56 E3        30.38F
WEBSTER CITY * CLOUDY    41  34  75 E6        30.36F
IOWA FALLS *   CLOUDY    41  31  68 NE5       30.40F
$$

IAZ007>011-017>019-026>030-037>042-050>054-066-211000-
   NORTHEAST IOWA

CITY           SKY/WX    TMP DP  RH WIND       PRES   REMARKS
CEDAR RAPIDS   MOCLDY    47  27  45 CALM      30.37R
CHARLES CITY * CLOUDY    41  30  65 N7        30.40R
CLINTON *      MOCLDY    44  28  53 E12       30.41F
DECORAH *      CLOUDY    37  28  70 NE3       30.39F
DUBUQUE        MOCLDY    45  24  43 SE9       30.40F
MONTICELLO *   CLOUDY    46  28  49 E12       30.36F
OELWEIN *      CLOUDY    43  36  75 NE6       30.39R
WATERLOO       CLOUDY    43  33  68 CALM      30.40R
$$

IAZ064-065-067-068-078-211000-
   EAST CENTRAL IOWA

CITY           SKY/WX    TMP DP  RH WIND       PRES   REMARKS
DAVENPORT      FAIR      45  25  45 E10       30.40F
IOWA CITY      FAIR      48  26  42 SE5       30.40R
MT. PLEASANT * CLOUDY    45  27  49 SE6       30.38S
MUSCATINE *    FAIR      46  30  53 S3        30.39R
QUAD CITIES    FAIR      45  28  51 E13       30.37F
$$

IAZ062-063-075>077-085>089-095>099-211000-
   SOUTHEAST IOWA

CITY           SKY/WX    TMP DP  RH WIND       PRES   REMARKS
BURLINGTON     CLOUDY    47  25  42 E3        30.38R
FAIRFIELD *    CLOUDY    43  27  52 E7        30.36F
FORT MADISON * CLOUDY    50  25  37 SE8       30.38R
KEOKUK *       CLOUDY    50  23  34 SE5       30.36S
OSKALOOSA *    FAIR      43  26  52 NE7       30.36F
CENTERVILLE *    N/A     45  25  45 CALM      30.36R
OTTUMWA        CLOUDY    45  26  47 E6        30.35S
WASHINGTON *   CLOUDY    45  28  53 SE3       30.39R
$$

ABBREVIATIONS USED IN REMARKS
   TC - TEMPERATURES IN CELSIUS
  WCI - WIND CHILL INDEX
   HX - HEAT INDEX
  VSB - VISIBILITY
$$




USA.gov is the U.S. government's official web portal to all federal, state and local government web resources and services.